Le nostre stazioni meteo in Italia

Pubblicità
Il mio iltempo24.it
Rostherne No 2, Gran Bretagna (3351): Temperatura & dewpoint: 19.01.2020 05:00:00 - 25.01.2020 05:00:00 (GMT)Rostherne No 2, Gran Bretagna (3351): velocità del vento: 19.01.2020 05:00:00 - 25.01.2020 05:00:00 (GMT)Rostherne No 2, Gran Bretagna (3351): direzione del vento: 19.01.2020 05:00:00 - 25.01.2020 05:00:00 (GMT)Rostherne No 2, Gran Bretagna (3351): reduced air pressure: 19.01.2020 05:00:00 - 25.01.2020 05:00:00 (GMT)Rostherne No 2, Gran Bretagna (3351): visibility: 19.01.2020 05:00:00 - 25.01.2020 05:00:00 (GMT)Rostherne No 2, Gran Bretagna (3351): ore di luce: 19.01.2020 05:00:00 - 25.01.2020 05:00:00 (GMT)Rostherne No 2, Gran Bretagna (3351): precipitazioni: 19.01.2020 05:00:00 - 25.01.2020 05:00:00 (GMT)
Data & Tempo tt [°C] td [°C] ff [km/h] ff [kn] dd ppp [hPa] vv [km] sd [min] rr [mm]
25.01.2020 05:00:00 5,9 5,8 8 4 SSO 1017,2 4,6 0 0,2
25.01.2020 04:00:00 6,0 5,9 8 4 SSO 1017,6 2,2 0 0,2
25.01.2020 03:00:00 6,1 6,0 5 3 SSO 1018,1 2,8 0 0,0
25.01.2020 02:00:00 6,1 6,1 4 2 SO 1018,7 2,6 0 0,0
25.01.2020 01:00:00 6,1 6,0 4 2 S 1019,1 2,5 0 0,2
25.01.2020 00:00:00 6,2 6,0 2 1 SSO 1019,8 1,5 - 0,0
24.01.2020 23:00:00 6,2 5,9 2 1 SSO 1020,2 2,4 0 0,0
24.01.2020 22:00:00 6,3 5,8 2 1 S 1020,4 4,1 0 0,0
24.01.2020 21:00:00 6,1 5,6 2 1 SO 1020,6 7 0 0,0
24.01.2020 20:00:00 6,2 5,6 0 0 N 1021,0 10 0 0,0
24.01.2020 19:00:00 6,6 6,0 8 4 NO 1021,1 11 0 0,0
24.01.2020 18:00:00 6,6 6,1 5 3 ONO 1020,9 10 0 0,2
24.01.2020 17:00:00 6,8 6,2 9 5 O 1020,7 5 0 0,0
24.01.2020 16:00:00 7,1 6,5 4 2 O 1021,0 10 0 0,0
24.01.2020 15:00:00 7,2 6,6 9 5 ONO 1021,3 9 0 0,0
24.01.2020 14:00:00 7,4 6,6 9 5 NO 1021,6 8 0 0,0
24.01.2020 13:00:00 7,7 7,1 11 6 NO 1021,9 13 0 0,0
24.01.2020 12:00:00 7,8 7,4 9 5 NO 1022,4 22 0 0,0
24.01.2020 11:00:00 7,6 7,3 11 6 ONO 1022,9 8 0 0,0
24.01.2020 10:00:00 7,4 7,2 11 6 ONO 1023,1 2,2 0 0,2
24.01.2020 09:00:00 6,9 6,7 5 3 O 1023,1 3,5 0 0,0
24.01.2020 08:00:00 6,7 6,5 9 5 O 1022,9 5 0 0,0
24.01.2020 07:00:00 6,8 6,4 11 6 O 1022,8 8 0 0,0
24.01.2020 06:00:00 6,7 6,4 8 4 O 1022,8 6 0 0,0
24.01.2020 05:00:00 6,8 6,6 9 5 O 1023,1 5 0 0,0
24.01.2020 04:00:00 6,7 6,6 9 5 O 1023,5 2,5 0 0,0
24.01.2020 03:00:00 6,8 6,7 11 6 O 1024,0 3,6 0 0,0
24.01.2020 02:00:00 6,6 6,5 9 5 O 1024,7 1,6 0 0,0
24.01.2020 01:00:00 6,5 6,3 5 3 O 1025,3 6 0 0,0
24.01.2020 00:00:00 6,5 6,3 4 2 OSO 1025,9 9 - 0,0
23.01.2020 23:00:00 6,5 6,4 8 4 ONO 1026,5 8 0 0,2
23.01.2020 22:00:00 6,5 6,4 9 5 O 1027,0 7 0 0,0
23.01.2020 21:00:00 6,8 6,7 9 5 ONO 1027,3 4,7 0 0,0
23.01.2020 20:00:00 7,0 6,9 5 3 O 1027,4 0,8 0 0,0
23.01.2020 19:00:00 6,8 6,7 4 2 OSO 1027,8 1,9 0 0,0
23.01.2020 18:00:00 6,8 6,6 4 2 SSE 1028,1 2,3 0 0,0
23.01.2020 17:00:00 6,9 6,6 5 3 S 1028,3 3,3 0 0,0
23.01.2020 16:00:00 7,2 6,7 2 1 O 1029,0 5 0 0,0
23.01.2020 15:00:00 7,2 6,8 5 3 O 1029,4 7 0 0,0
23.01.2020 14:00:00 7,3 7,0 4 2 O 1030,0 8 0 0,0
23.01.2020 13:00:00 7,5 7,5 4 2 O 1030,8 13 0 0,0
23.01.2020 12:00:00 7,1 7,1 2 1 OSO 1031,9 2,6 0 0,0
23.01.2020 11:00:00 6,6 6,6 8 4 SSE 1032,5 0,8 0 0,0
23.01.2020 10:00:00 6,3 6,3 2 1 NE 1033,1 1,6 0 0,0
23.01.2020 09:00:00 6,0 6,0 2 1 SE 1033,2 1,3 0 0,0
23.01.2020 08:00:00 5,8 5,8 4 2 SSO 1033,4 1,0 0 0,0
23.01.2020 07:00:00 5,8 5,8 5 3 SSE 1033,5 1,3 0 0,0
23.01.2020 06:00:00 5,6 5,6 5 3 SSE 1033,6 1,2 0 0,0
23.01.2020 05:00:00 5,8 5,8 2 1 SO 1034,2 2,2 0 0,0
23.01.2020 04:00:00 5,8 5,8 5 3 SSO 1034,4 1,2 0 0,0
23.01.2020 03:00:00 5,9 5,9 4 2 S 1034,9 2,7 0 0,2
23.01.2020 02:00:00 6,1 6,1 4 2 OSO 1035,6 2,1 0 0,0
23.01.2020 01:00:00 6,2 6,2 5 3 ONO 1035,9 0,3 0 0,0
23.01.2020 00:00:00 6,0 6,0 4 2 O 1036,3 0,2 - 0,0
22.01.2020 23:00:00 6,0 6,0 5 3 NNO 1036,7 0,2 0 0,0
22.01.2020 22:00:00 6,3 6,3 8 4 NO 1036,8 0,4 0 0,0
22.01.2020 21:00:00 6,6 6,6 8 4 ONO 1036,8 0,4 0 0,0
22.01.2020 20:00:00 7,2 7,2 8 4 NO 1037,1 0,3 0 0,0
22.01.2020 19:00:00 7,6 7,6 5 3 O 1037,2 0,2 0 0,0
22.01.2020 18:00:00 7,9 7,8 4 2 NO 1037,4 0,3 0 0,0
22.01.2020 17:00:00 8,2 8,1 4 2 ONO 1037,3 1,8 0 0,0
22.01.2020 16:00:00 8,8 8,8 5 3 NO 1037,3 7 0 0,0
22.01.2020 15:00:00 9,2 9,2 8 4 O 1037,4 4,8 0 0,0
22.01.2020 14:00:00 9,1 9,1 4 2 NNO 1037,8 4,2 0 0,0
22.01.2020 13:00:00 8,8 8,8 9 5 NO 1038,2 3,5 0 0,0
22.01.2020 12:00:00 9,0 9,0 9 5 NO 1038,5 3,4 0 0,0
22.01.2020 11:00:00 8,4 8,4 5 3 ONO 1038,6 2,0 0 0,0
22.01.2020 10:00:00 8,2 8,2 8 4 N 1038,7 1,8 0 0,0
22.01.2020 09:00:00 7,8 7,8 4 2 NO 1038,6 0,4 0 0,0
22.01.2020 08:00:00 7,4 7,4 5 3 NO 1038,3 0,5 0 0,2
22.01.2020 07:00:00 7,5 7,5 4 2 NO 1038,2 0,7 0 0,0
22.01.2020 06:00:00 6,9 6,9 2 1 NNO 1038,3 0,3 0 0,2
22.01.2020 05:00:00 6,8 6,8 0 0 N 1038,3 0,3 0 0,2
22.01.2020 04:00:00 7,1 7,1 2 1 N 1038,6 0,3 0 0,0
22.01.2020 03:00:00 7,1 7,1 4 2 O 1038,9 0,2 0 0,0
22.01.2020 02:00:00 7,2 7,2 2 1 O 1039,2 0,3 0 0,0
22.01.2020 01:00:00 7,1 7,1 4 2 O 1039,4 0,3 0 0,2
22.01.2020 00:00:00 7,2 7,2 0 0 N 1039,9 0,3 - 0,0
21.01.2020 23:00:00 7,1 7,1 5 3 NO 1039,8 0,4 0 0,0
21.01.2020 22:00:00 7,0 7,0 4 2 NO 1039,8 0,9 0 0,0
21.01.2020 21:00:00 7,0 7,0 5 3 ONO 1040,1 1,5 0 0,0
21.01.2020 20:00:00 7,0 7,0 5 3 NNO 1040,2 1,5 0 0,0
21.01.2020 19:00:00 6,9 6,9 4 2 NO 1040,1 2,0 0 0,0
21.01.2020 18:00:00 6,9 6,9 8 4 NNO 1039,9 2,8 0 0,0
21.01.2020 17:00:00 7,0 6,9 8 4 NNO 1039,9 2,0 0 0,2
21.01.2020 16:00:00 7,1 7,0 8 4 ONO 1040,3 1,5 0 0,0
21.01.2020 15:00:00 6,9 6,9 5 3 ONO 1040,4 3,6 - 0,0
21.01.2020 14:00:00 - - 4 2 SSO - - - 0,0
21.01.2020 13:00:00 - - 4 2 SSO - - - 0,0
21.01.2020 12:00:00 - - 5 3 SSO - - - 0,0
21.01.2020 11:00:00 5,5 4,8 4 2 S 1041,9 10 0 0,0
21.01.2020 10:00:00 4,6 4,4 4 2 S 1041,9 12 0 0,0
21.01.2020 09:00:00 4,1 3,9 4 2 SSO 1041,7 10 0 0,0
21.01.2020 08:00:00 2,9 2,8 2 1 S 1041,5 8 0 0,0
21.01.2020 07:00:00 2,9 2,8 4 2 SSO 1041,4 9 0 0,0
21.01.2020 06:00:00 2,8 2,6 5 3 SE 1042,0 7 0 0,0
21.01.2020 05:00:00 2,8 2,7 4 2 S 1041,8 10 0 0,0
21.01.2020 04:00:00 2,5 2,4 5 3 SSE 1041,8 9 0 0,0
21.01.2020 03:00:00 2,7 2,6 2 1 ESE 1042,3 11 0 0,0
21.01.2020 02:00:00 2,3 2,3 5 3 SSO 1042,9 9 0 0,0
21.01.2020 01:00:00 1,8 1,8 4 2 SO 1043,3 13 0 0,0
21.01.2020 00:00:00 1,1 1,1 2 1 OSO 1043,9 6 - 0,0
20.01.2020 23:00:00 1,1 1,0 2 1 SSO 1044,5 9 0 0,0
20.01.2020 22:00:00 1,3 1,2 2 1 ONO 1044,8 11 0 0,0
20.01.2020 21:00:00 1,2 1,1 5 3 O 1045,2 12 0 0,0
20.01.2020 20:00:00 1,6 1,4 4 2 O 1045,5 12 0 0,0
20.01.2020 19:00:00 0,7 0,3 4 2 SO 1045,5 7 0 0,0
20.01.2020 18:00:00 1,9 1,2 4 2 SSO 1045,4 11 0 0,0
20.01.2020 17:00:00 4,2 2,6 5 3 O 1045,2 30 6 0,0
20.01.2020 16:00:00 7,0 3,6 9 5 ONO 1045,3 35 60 0,0
20.01.2020 15:00:00 8,4 4,6 4 2 OSO 1045,6 20 60 0,0
20.01.2020 14:00:00 7,8 3,8 5 3 OSO 1046,1 20 60 0,0
20.01.2020 13:00:00 7,9 4,4 2 1 SSO 1046,7 20 60 0,0
20.01.2020 12:00:00 6,0 3,8 4 2 SSO 1047,5 22 60 0,0
20.01.2020 11:00:00 3,8 3,3 5 3 S 1048,1 17 48 0,0
20.01.2020 10:00:00 2,0 2,0 5 3 S 1048,1 14 24 0,0
20.01.2020 09:00:00 0,7 0,7 5 3 S 1047,9 13 0 0,0
20.01.2020 08:00:00 0,9 0,9 4 2 S 1047,4 16 0 0,0
20.01.2020 07:00:00 0,2 0,2 5 3 SE 1047,6 9 0 0,0
20.01.2020 06:00:00 -1,0 -1,0 0 0 N 1047,5 8 0 0,0
20.01.2020 05:00:00 -2,5 -2,5 0 0 N 1047,7 3,3 0 0,0
20.01.2020 04:00:00 -2,5 -2,5 0 0 N 1047,9 5 0 0,0
20.01.2020 03:00:00 -2,0 -2,0 0 0 N 1047,9 3,8 0 0,0
20.01.2020 02:00:00 -1,6 -1,6 0 0 N 1048,4 1,7 0 0,0
20.01.2020 01:00:00 -1,7 -1,7 2 1 SE 1048,3 0,5 0 0,0
20.01.2020 00:00:00 -0,7 -0,7 0 0 N 1048,5 0,1 - 0,0
19.01.2020 23:00:00 -0,2 -0,2 2 1 E 1048,0 0,4 0 0,0
19.01.2020 22:00:00 0,9 0,9 4 2 S 1047,9 1,0 0 0,0
19.01.2020 21:00:00 1,1 1,1 5 3 SE 1048,0 1,3 0 0,0
19.01.2020 20:00:00 0,7 0,7 4 2 SE 1048,0 0,3 0 0,0
19.01.2020 19:00:00 0,6 0,6 4 2 SSE 1048,0 0,5 0 0,0
19.01.2020 18:00:00 0,6 0,6 4 2 SSE 1048,1 0,2 0 0,0
19.01.2020 17:00:00 1,0 1,0 5 3 S 1047,5 0,1 0 0,0
19.01.2020 16:00:00 1,3 1,3 8 4 SE 1047,3 0,1 0 0,0
19.01.2020 15:00:00 1,1 1,1 4 2 S 1047,1 0,1 0 0,0
19.01.2020 14:00:00 1,4 1,4 5 3 O 1046,8 0,2 0 0,0
19.01.2020 13:00:00 0,8 0,8 4 2 S 1046,5 0,3 0 0,2
19.01.2020 12:00:00 -0,2 -0,2 4 2 SE 1046,3 0,4 0 0,0
19.01.2020 11:00:00 -1,3 -1,3 0 0 N 1046,8 0,3 0 0,0
19.01.2020 10:00:00 -2,0 -2,0 2 1 ESE 1046,3 0,2 0 0,0
19.01.2020 09:00:00 -2,1 -2,1 4 2 ESE 1045,3 0,2 0 0,0
19.01.2020 08:00:00 -1,8 -1,8 4 2 ESE 1044,6 0,2 0 0,0
19.01.2020 07:00:00 -1,4 -1,4 4 2 ESE 1043,4 0,2 0 0,0
19.01.2020 06:00:00 -0,8 -0,8 4 2 ESE 1042,3 0,1 0 0,0
19.01.2020 05:00:00 -0,7 -0,8 2 1 SE 1041,4 0,1 0 0,0

tt = Temperatura
td = dewpoint
ff = velocità del vento
dd = direzione del vento
ppp = reduced air pressure
vv = visibility
sd = ore di luce
rr = precipitazioni

Stazioni seguenti

WeatherPro
AMSI
MeteoEarth